Starlink 33751

operational
NORAD ID: 63512 Int'l Des: 2025-071 Owner: SPXS Country: US Constellation: starlink
LEOCIRCULAR

About Starlink 33751

Description loading...

Live Position

Loading 3D Globe...

Upcoming Passes

Altitude History

Altitude vs Time

uPlot chart will show altitude changes over time

Two-Line Element Set

1 63512U 25071V 26102.36648767 .00006350 00000-0 22632-3 0 9992
2 63512 53.1596 343.6216 0001301 83.6919 276.4229 15.30200455 57902
Epoch: Apr 12, 2026 • Age: 7 hours

Current Status

Altitude 477.8 km
Velocity 7.63 km/s
Sub-Earth Point -8.43°S, 89.31°E
Launch Date Apr 7, 2025
Age 1 years
Type internet

Technical Details

Classification Payload
Mass 575.00 kg
Dry Mass 530.00 kg
Total Mass 575.00 kg
Length 0.30 m
Diameter 4.10 m
Span 29.00 m
Shape Box + pan
Manufacturer SPXS
Bus Type Starlink V2MO
Phase Status In Orbit
Owner/State SPXS/US

Large Constellations

Loading constellations...